TimePDT,TemperatureF,Dew PointF,Humidity,Sea Level PressureIn,VisibilityMPH,Wind Direction,Wind SpeedMPH,Gust SpeedMPH,PrecipitationIn,Events,Conditions,WindDirDegrees,DateUTC
12:53 AM,39.0,28.0,65,30.00,10.0,SSW,20.7,31.1,N/A,,Clear,210,2013-03-21 07:53:00
1:53 AM,37.9,28.0,68,30.03,10.0,SW,24.2,33.4,N/A,,Scattered Clouds,230,2013-03-21 08:53:00
2:53 AM,37.0,27.0,67,30.06,10.0,SW,17.3,26.5,N/A,,Clear,230,2013-03-21 09:53:00
3:53 AM,37.0,26.1,65,30.08,10.0,SW,13.8,23.0,N/A,,Partly Cloudy,220,2013-03-21 10:53:00
4:53 AM,36.0,25.0,64,30.09,10.0,SSW,15.0,-,N/A,,Clear,210,2013-03-21 11:53:00
5:53 AM,35.1,24.1,64,30.11,10.0,SSW,10.4,-,N/A,,Clear,200,2013-03-21 12:53:00
6:53 AM,35.1,24.1,64,30.12,10.0,SSW,10.4,-,N/A,,Mostly Cloudy,200,2013-03-21 13:53:00
7:53 AM,37.0,24.1,59,30.12,10.0,South,9.2,-,N/A,,Overcast,180,2013-03-21 14:53:00
8:53 AM,37.9,25.0,60,30.14,10.0,SSW,11.5,-,N/A,,Overcast,210,2013-03-21 15:53:00
9:53 AM,41.0,27.0,57,30.14,10.0,WSW,17.3,21.9,N/A,,Overcast,240,2013-03-21 16:53:00
10:53 AM,42.1,28.0,58,30.15,10.0,SW,23.0,28.8,N/A,,Overcast,220,2013-03-21 17:53:00
11:53 AM,46.0,28.0,50,30.14,10.0,WSW,23.0,-,N/A,,Scattered Clouds,250,2013-03-21 18:53:00
12:53 PM,46.0,28.0,50,30.13,10.0,WSW,24.2,28.8,N/A,,Scattered Clouds,240,2013-03-21 19:53:00
1:53 PM,48.0,28.0,46,30.12,10.0,WSW,24.2,31.1,N/A,,Clear,250,2013-03-21 20:53:00
2:53 PM,48.9,25.0,39,30.09,10.0,SW,21.9,31.1,N/A,,Mostly Cloudy,230,2013-03-21 21:53:00
3:53 PM,48.9,23.0,36,30.08,10.0,WSW,17.3,25.3,N/A,,Overcast,240,2013-03-21 22:53:00
4:53 PM,48.9,23.0,36,30.08,10.0,West,21.9,27.6,N/A,,Partly Cloudy,260,2013-03-21 23:53:00
5:53 PM,43.0,27.0,53,30.10,10.0,West,12.7,-,N/A,,Partly Cloudy,260,2013-03-22 00:53:00
6:53 PM,41.0,28.0,60,30.10,10.0,South,18.4,-,N/A,,Overcast,190,2013-03-22 01:53:00
7:53 PM,39.9,30.0,68,30.11,10.0,SSW,13.8,-,N/A,,Mostly Cloudy,200,2013-03-22 02:53:00
8:53 PM,37.9,30.9,76,30.12,10.0,South,17.3,24.2,N/A,,Overcast,170,2013-03-22 03:53:00
9:53 PM,39.0,30.0,70,30.12,10.0,SW,13.8,-,N/A,,Overcast,220,2013-03-22 04:53:00
10:53 PM,37.0,28.9,73,30.14,10.0,South,11.5,-,N/A,,Mostly Cloudy,180,2013-03-22 05:53:00
11:53 PM,37.0,28.9,73,30.14,10.0,SSW,13.8,-,N/A,,Overcast,200,2013-03-22 06:53:00